Location: Namasale
(1.5000°N, 32.6167°E)
Time: 18:21:14
(UTC+00:00)

YAOGAN 1 - Pass Details

Date: 09 April 2020
Orbit: 618 x 620 km, 97.9° (Epoch: 28 May)

Event Time Altitude Azimuth Distance (km) Brightness Sun altitude
Rises 16:43:03 0° 164° (SSE) 2,891 5.8 -12.7°
Reaches altitude 10° 16:45:14 10° 162° (SSE) 1,984 4.9 -13.2°
Maximum altitude 16:49:32 70° 79° (ENE) 660 2.5 -14.3°
Drops below altitude 10° 16:53:49 10° 355° (N) 1,977 5.3 -15.3°
Sets 16:56:00 0° 353° (N) 2,880 6.2 -15.9°
